Weather History for Monroe, LA

Change the Weather History Date:

Friday, May 17, 2013

  Actual Average Record
Temperature  
Mean Temperature 76 °F 74 °F  
Max Temperature 85 °F 86 °F 94 °F (1988)
Min Temperature 67 °F 63 °F 47 °F (2011)
Degree Days  
Heating Degree Days 0 0  
Month to date heating degree days 41 3  
Since 1 July heating degree days 2205 2227  
Cooling Degree Days 11 10  
Month to date cooling degree days 57 130  
Year to date cooling degree days 170 277  
Growing Degree Days 24 (Base 50)    
Moisture  
Dew Point 69 °F    
Average Humidity 78    
Maximum Humidity 90    
Minimum Humidity 65    
Precipitation  
Precipitation 0.02 in 0.17 in 3.10 in (1930)
Month to date precipitation 2.60 2.92  
Year to date precipitation 24.26 21.78  
Snow  
Snow 0.00 in - - ()
Month to date snowfall 0.0  
Since 1 July snowfall 0.3  
Snow Depth 0.00 in    
Sea Level Pressure  
Sea Level Pressure 29.93 in    
Wind  
Wind Speed 6 mph (South)    
Max Wind Speed 16 mph    
Max Gust Speed 21 mph    
Visibility 8 miles    
Events Rain    
T = Trace of Precipitation, MM = Missing Value Source: NWS Daily Summary

Daily Weather History Graph

Daily Weather History Graph

Search for Another Location

Airport:

Trip Planner

Search our weather history database for the weather conditions in past years. The results will help you decide how hot, cold, wet, or windy it might be!

Date:

Astronomy

May. 17, 2013 Rise Set
Actual Time 6:08 AM CDT 8:01 PM CDT
Civil Twilight 5:41 AM CDT 8:28 PM CDT
Nautical Twilight 5:08 AM CDT 9:01 PM CDT
Astronomical Twilight 4:33 AM CDT 9:36 PM CDT
Moon 12:31 PM CDT (5/17) 1:02 AM CDT (5/17)
Length of Visible Light 14h 47m
Length of Day
13h 52m
Waxing Crescent, 45% of the Moon is Illuminated
May 17
Waxing Crescent
May 17
First Quarter
May 24
Full
May 31
Last Quarter
Jun 8
New

Hourly Weather History & Observations

Time (CDT) Temp. Heat Index Dew Point Humidity Pressure Visibility Wind Dir Wind Speed Gust Speed Precip Events Conditions
12:53 AM 69.8 °F - 62.6 °F 78% 29.88 in 10.0 mi South 6.9 mph - N/A   Scattered Clouds
1:53 AM 69.1 °F - 63.0 °F 81% 29.88 in 10.0 mi South 4.6 mph - N/A   Clear
2:53 AM 66.9 °F - 63.0 °F 87% 29.88 in 10.0 mi Calm Calm - N/A   Scattered Clouds
3:53 AM 68.0 °F - 64.0 °F 87% 29.89 in 10.0 mi South 3.5 mph - N/A   Mostly Cloudy
4:53 AM 68.0 °F - 64.9 °F 90% 29.89 in 10.0 mi SSE 4.6 mph - N/A   Overcast
5:53 AM 68.0 °F - 64.9 °F 90% 29.91 in 10.0 mi South 3.5 mph - N/A   Mostly Cloudy
6:53 AM 69.1 °F - 66.0 °F 90% 29.94 in 9.0 mi Calm Calm - N/A   Overcast
7:53 AM 70.0 °F - 66.9 °F 90% 29.95 in 6.0 mi South 4.6 mph - N/A   Overcast
8:12 AM 71.6 °F - 68.0 °F 88% 29.96 in 9.0 mi South 6.9 mph - N/A   Overcast
8:53 AM 73.0 °F - 69.1 °F 87% 29.96 in 9.0 mi South 4.6 mph - N/A   Overcast
8:56 AM 73.4 °F - 69.8 °F 88% 29.96 in 6.0 mi SSW 6.9 mph - N/A   Overcast
9:20 AM 75.2 °F - 69.8 °F 83% 29.96 in 6.0 mi SSW 10.4 mph - N/A   Haze
9:29 AM 75.2 °F - 69.8 °F 83% 29.96 in 6.0 mi SSW 11.5 mph - N/A   Haze
9:43 AM 75.2 °F - 69.8 °F 83% 29.96 in 6.0 mi SSW 11.5 mph 18.4 mph N/A   Haze
9:53 AM 75.9 °F - 69.1 °F 79% 29.95 in 9.0 mi SSW 11.5 mph 19.6 mph N/A   Overcast
10:53 AM 78.1 °F - 69.1 °F 74% 29.96 in 6.0 mi SSW 11.5 mph - N/A   Haze
11:09 AM 78.8 °F - 69.8 °F 74% 29.96 in 9.0 mi SW 9.2 mph 16.1 mph N/A   Overcast
11:23 AM 78.8 °F - 69.8 °F 74% 29.97 in 9.0 mi SSW 10.4 mph - N/A   Overcast
11:53 AM 80.1 °F 82.9 °F 69.1 °F 69% 29.97 in 6.0 mi SW 10.4 mph - N/A   Haze
12:00 PM 80.6 °F 83.9 °F 69.8 °F 70% 29.97 in 9.0 mi SW 11.5 mph - N/A   Overcast
12:53 PM 82.9 °F 87.0 °F 70.0 °F 65% 29.96 in 10.0 mi SW 12.7 mph - N/A   Mostly Cloudy
1:53 PM 82.4 °F 86.3 °F 69.8 °F 66% 29.94 in 9.0 mi South 10.4 mph - N/A   Mostly Cloudy
2:00 PM 82.4 °F 86.3 °F 69.8 °F 66% 29.94 in 9.0 mi South 8.1 mph - N/A   Mostly Cloudy
2:53 PM 82.0 °F 85.9 °F 70.0 °F 67% 29.93 in 8.0 mi SSW 4.6 mph - N/A   Overcast
3:53 PM 82.9 °F 87.0 °F 70.0 °F 65% 29.91 in 8.0 mi Variable 4.6 mph - N/A   Overcast
4:53 PM 82.9 °F 87.5 °F 71.1 °F 67% 29.90 in 7.0 mi SSW 3.5 mph - N/A   Mostly Cloudy
5:29 PM 82.4 °F 88.2 °F 73.4 °F 74% 29.91 in 2.5 mi Calm Calm - 0.02 in Rain Light Rain
5:37 PM 82.4 °F 89.5 °F 75.2 °F 79% 29.91 in 5.0 mi ENE 3.5 mph - 0.02 in   Haze
5:53 PM 82.0 °F 88.6 °F 75.0 °F 79% 29.90 in 5.0 mi ESE 3.5 mph - 0.02 in   Haze
6:53 PM 82.0 °F 87.4 °F 73.0 °F 74% 29.88 in 6.0 mi South 5.8 mph - N/A   Haze
7:53 PM 81.0 °F 85.8 °F 73.0 °F 77% 29.90 in 7.0 mi SSE 4.6 mph - N/A   Overcast
8:53 PM 79.0 °F - 71.1 °F 77% 29.91 in 10.0 mi South 5.8 mph - N/A   Overcast
9:53 PM 77.0 °F - 71.1 °F 82% 29.93 in 10.0 mi South 5.8 mph - N/A   Overcast
10:53 PM 75.9 °F - 70.0 °F 82% 29.95 in 8.0 mi South 9.2 mph - N/A   Partly Cloudy
11:53 PM 75.9 °F - 69.1 °F 79% 29.95 in 7.0 mi South 8.1 mph - N/A   Clear